Home > Weather > Constantine > Past weeks

Flag for Algeria Weather for the Past 2 Weeks in Constantine, Algeria

Now
52 °F

Scattered clouds.


Feels Like: 49 °F
Forecast: 37 / 67 °F
Wind: 9 mph from Southwest

Location: Constantine Airport

Current Time: Feb 8, 2016 at 12:02:55 PM

Latest Report: Feb 8, 2016 at 11:30 AM


Visibility: N/A

Pressure: 30.30 "Hg (28.34 "Hg at 557m altitude)

Humidity: 67%

Dew point: 41 °F

Location of ConstantineLocation

Historic Weather in Constantine — Graph

°F

Constantine Temperature Yesterday

Maximum temperature yesterday: 59 °F (at 12:30 PM)
Minimum temperature yesterday: 41 °F (at 4:30 AM)
Average temperature yesterday: 47 °F

High & Low Weather Summary for the Past Weeks

 TemperatureHumidityPressure
High66 °F (Jan 25, 5:00 PM)100% (Jan 29, 4:00 AM)30.63 "Hg (Jan 29, 4:00 AM)
Low32 °F (Feb 6, 6:30 AM)34% (Jan 25, 4:00 PM)30.01 "Hg (Feb 7, 3:30 PM)
Average47 °F74%30.41 "Hg
* Reported Jan 24 10:00 AM — Feb 8 10:30 AM, Constantine, Weather by CustomWeather, © 2016

Note: Actual official high and low records may vary slightly from our data, if they occured in-between our weather recording intervals... More about our weather records

Advertising

Constantine Weather History for the Previous 24 Hours

 ConditionsComfort  
Time TempWeatherWind HumidityBarometerVisibility
10:30 AM
Mon, Feb 8
45 °FScattered clouds.12 mph76%30.30 "HgN/A
10:00 AM45 °FScattered clouds.12 mph76%30.30 "HgN/A
9:30 AM43 °FBroken clouds.12 mph76%30.30 "HgN/A
9:00 AM45 °FScattered clouds.12 mph76%30.27 "HgN/A
8:30 AM43 °FScattered clouds.12 mph81%30.27 "HgN/A
8:00 AM39 °FScattered clouds.5 mph81%30.24 "HgN/A
7:30 AM37 °FScattered clouds.5 mph87%30.24 "Hg5 mi
7:00 AM37 °FPassing clouds.7 mph87%30.24 "Hg5 mi
6:30 AM37 °FPassing clouds.9 mph81%30.21 "Hg5 mi
6:00 AM39 °FPassing clouds.9 mph81%30.21 "Hg5 mi
5:30 AM41 °FPassing clouds.10 mph81%30.21 "Hg5 mi
5:00 AM41 °FPassing clouds.12 mph81%30.21 "Hg5 mi
4:00 AM37 °FPassing clouds.5 mph87%30.18 "Hg5 mi
3:30 AM39 °FPassing clouds.2 mph87%30.21 "Hg5 mi
2:30 AM43 °FPassing clouds.2 mph76%30.21 "HgN/A
2:00 AM43 °FPassing clouds.10 mph76%30.21 "HgN/A
1:30 AM43 °FPassing clouds.13 mph76%30.18 "Hg5 mi
1:00 AM41 °FPassing clouds.12 mph81%30.18 "Hg5 mi
12:30 AM41 °FPassing clouds.10 mph87%30.18 "Hg5 mi
12:00 AM41 °FPassing clouds.5 mph87%30.18 "Hg5 mi
11:30 PM
Sun, Feb 7
43 °FPassing clouds.9 mph81%30.18 "Hg5 mi
11:00 PM41 °FLight rain. Passing clouds.8 mph87%30.18 "Hg5 mi
10:30 PM43 °FLight rain. Passing clouds.21 mph76%30.18 "Hg5 mi
10:00 PM45 °FPassing clouds.18 mph76%30.18 "Hg5 mi
9:30 PM43 °FPassing clouds.15 mph81%30.15 "Hg5 mi
9:00 PM45 °FPassing clouds.16 mph76%30.15 "Hg5 mi
8:30 PM45 °FPassing clouds.14 mph71%30.12 "Hg5 mi
8:00 PM45 °FPassing clouds.13 mph76%30.12 "Hg5 mi
7:30 PM43 °FPassing clouds.7 mph81%30.12 "Hg5 mi
7:00 PM45 °FPassing clouds.9 mph87%30.12 "Hg5 mi
6:30 PM45 °FPartly cloudy.12 mph87%30.09 "Hg5 mi
6:00 PM45 °FLight rain. More clouds than sun.16 mph87%30.09 "Hg4 mi
5:30 PM48 °FLight rain. Broken clouds.12 mph76%30.04 "Hg4 mi
5:00 PM48 °FLight rain. Broken clouds.18 mph76%30.04 "HgN/A
4:30 PM52 °FLight rain. Broken clouds.17 mph58%30.04 "Hg5 mi
4:00 PM55 °FScattered clouds.17 mph47%30.01 "HgN/A
3:30 PM54 °FBroken clouds.15 mph54%30.01 "Hg6 mi
3:00 PM54 °FLight rain. Broken clouds.18 mph54%30.04 "Hg5 mi
2:30 PM59 °FBroken clouds.24 mph42%30.04 "HgN/A
2:00 PM59 °FBroken clouds.16 mph42%30.04 "HgN/A
1:30 PM59 °FBroken clouds.13 mph42%30.04 "HgN/A
1:00 PM59 °FBroken clouds.18 mph42%30.07 "HgN/A
12:30 PM59 °FBroken clouds.18 mph42%30.07 "HgN/A
12:00 PM57 °FBroken clouds.9 mph48%30.09 "HgN/A
Weather by CustomWeather, © 2016

See weather overviewHow to use our weather pages